This is the latest recevied weather packets stored in our database for station/object N3LF. If no packets are shown the sender has not sent any weather packets the latest 10 day(s).
| Time | Temp. | Humidity | Pressure | Rain* | Wind** | Luminosity | Snow |
|---|---|---|---|---|---|---|---|
| 1777164790 | 21.11° C | 66% | 1012.3 hPa | 0 mm | - | 0 W/m² | - |
| 1777164489 | 21.11° C | 65% | 1012.3 hPa | 0 mm | - | 0 W/m² | - |
| 1777164184 | 21.11° C | 65% | 1012.2 hPa | 0 mm | - | 1 W/m² | - |
| 1777163879 | 21.67° C | 65% | 1012.3 hPa | 0 mm | - | 1 W/m² | - |
| 1777163579 | 22.22° C | 63% | 1012.3 hPa | 0 mm | - | 3 W/m² | - |
| 1777163275 | 22.22° C | 62% | 1012.1 hPa | 0 mm | - | 5 W/m² | - |
| 1777162971 | 22.78° C | 62% | 1011.9 hPa | 0 mm | - | 7 W/m² | - |
| 1777162671 | 22.78° C | 60% | 1011.9 hPa | 0 mm | - | 10 W/m² | - |
| 1777162366 | 22.78° C | 60% | 1011.9 hPa | 0 mm | - | 13 W/m² | - |
| 1777162065 | 23.33° C | 58% | 1011.7 hPa | 0 mm | - | 16 W/m² | - |
| 1777161761 | 23.89° C | 57% | 1011.7 hPa | 0 mm | - | 18 W/m² | - |
| 1777161459 | 23.89° C | 58% | 1011.8 hPa | 0 mm | - | 20 W/m² | - |
| 1777161154 | 23.89° C | 57% | 1011.8 hPa | 0 mm | - | 27 W/m² | - |
| 1777160851 | 23.89° C | 57% | 1011.6 hPa | 0 mm | - | 30 W/m² | - |
| 1777160546 | 23.89° C | 56% | 1011.7 hPa | 0 mm | - | 33 W/m² | - |
| 1777160243 | 24.44° C | 57% | 1011.5 hPa | 0 mm | - | 34 W/m² | - |
| 1777159939 | 25° C | 55% | 1011.5 hPa | 0 mm | - | 56 W/m² | - |
| 1777159634 | 24.44° C | 55% | 1011.3 hPa | 0 mm | - | 65 W/m² | - |
| 1777159331 | 24.44° C | 56% | 1011.8 hPa | 0 mm | - | 74 W/m² | - |
| 1777159027 | 25° C | 53% | 1011.5 hPa | 0 mm | - | 50 W/m² | - |
| 1777158722 | 25° C | 54% | 1011.5 hPa | 0 mm | - | 90 W/m² | - |
| 1777158417 | 25° C | 54% | 1011.4 hPa | 0 mm | - | 55 W/m² | - |
| 1777158113 | 25° C | 53% | 1011.2 hPa | 0 mm | - | 47 W/m² | - |
| 1777157808 | 25.56° C | 52% | 1011.4 hPa | 0 mm | - | 93 W/m² | - |
| 1777157504 | 25° C | 54% | 1011.5 hPa | 0 mm | - | 134 W/m² | - |
* Rain latest hour (hover to see other rain measurements)
** Current wind speed in m/s (hover to see current wind gust speed)